Date,TemperatureHighF,TemperatureAvgF,TemperatureLowF,DewpointHighF,DewpointAvgF,DewpointLowF,HumidityHigh,HumidityAvg,HumidityLow,PressureMaxIn,PressureMinIn,WindSpeedMaxMPH,WindSpeedAvgMPH,GustSpeedMaxMPH,PrecipitationSumIn
2013-1-1,36.4,32.8,21.7,27.7,21.4,10.0,72,63,51,30.04,29.85,12,3,17,0.02
2013-1-2,27.4,22.1,15.6,17.4,12.9,9.2,77,67,59,30.21,30.01,12,1,17,0.00
2013-1-3,27.1,18.8,6.1,17.5,10.0,-0.6,80,68,57,30.25,30.09,7,2,0,0.00
2013-1-4,35.1,30.6,25.8,24.7,21.5,17.4,78,69,60,30.10,29.96,9,2,0,0.00
2013-1-5,39.2,32.9,27.0,24.9,22.3,19.1,85,65,52,30.31,30.01,13,2,15,0.00
2013-1-6,41.5,34.2,26.6,30.7,27.2,22.5,87,76,63,30.26,30.00,5,1,0,0.00
2013-1-7,39.1,34.5,27.2,29.8,25.2,20.4,84,69,48,30.43,30.07,11,1,0,0.00
2013-1-8,44.9,35.4,25.9,31.5,27.4,21.0,87,73,58,30.46,30.36,7,1,0,0.00
2013-1-9,44.0,36.2,24.6,36.8,30.9,22.6,94,81,67,30.42,30.15,7,1,0,0.00
2013-1-10,43.6,39.0,33.5,32.7,25.2,22.6,70,58,44,30.59,30.23,12,2,15,0.00
2013-1-11,41.3,34.9,29.0,40.5,30.4,23.4,97,84,68,30.58,30.15,5,0,0,0.39
2013-1-12,43.7,40.7,38.0,43.1,40.2,37.3,98,98,97,30.22,30.13,2,0,0,0.07
2013-1-13,45.9,42.6,39.3,45.6,42.2,38.8,99,98,98,30.19,30.04,4,0,0,0.01
2013-1-14,54.5,44.7,32.9,52.7,41.5,27.9,99,89,69,30.34,29.91,8,2,0,0.03
2013-1-15,35.3,32.8,30.5,29.6,27.0,25.3,93,79,68,30.38,30.25,8,2,0,0.00
2013-1-16,32.4,30.5,28.6,30.8,29.4,25.5,97,96,76,30.29,29.83,5,0,0,0.00
2013-1-17,39.7,34.1,26.6,31.9,27.5,16.2,98,77,61,30.14,29.94,13,2,15,0.08
2013-1-18,26.6,22.1,18.8,16.8,8.8,3.4,68,57,42,30.51,30.07,13,3,15,0.00
2013-1-19,43.9,35.5,22.8,29.9,23.7,12.2,74,62,51,30.43,29.94,8,1,12,0.09
2013-1-20,49.1,39.0,26.1,31.0,24.1,8.2,79,57,32,30.05,29.69,18,4,19,0.00
2013-1-21,28.6,24.7,20.8,21.3,13.6,6.2,89,64,45,30.12,29.85,16,1,19,0.00
2013-1-22,21.7,16.1,9.2,18.1,1.0,-7.3,87,51,37,30.22,29.85,19,4,22,0.00
2013-1-23,15.6,10.2,6.2,-0.5,-3.4,-6.5,72,53,40,30.28,30.18,12,3,16,0.00
2013-1-24,18.7,10.3,2.1,1.2,-1.3,-3.2,84,60,38,30.41,30.19,16,3,22,0.00
2013-1-25,22.0,14.8,8.4,14.4,4.7,-0.3,91,65,40,30.45,30.11,7,1,0,0.00
2013-1-26,22.9,16.4,10.2,12.8,7.8,4.2,90,70,49,30.40,30.08,12,2,16,0.00
2013-1-27,29.7,20.3,11.6,11.5,7.3,4.6,83,59,36,30.56,30.39,9,2,0,0.00
2013-1-28,31.6,26.4,18.1,30.6,22.3,7.4,96,85,57,30.54,30.04,5,0,0,0.03
2013-1-29,40.2,35.4,31.6,38.3,34.1,30.6,98,95,89,30.20,30.04,3,0,0,0.17
2013-1-30,53.7,47.1,36.3,53.4,46.5,35.5,99,98,97,30.15,29.40,7,1,12,0.10
2013-1-31,56.9,42.9,26.6,55.8,32.2,10.9,99,68,40,29.76,29.05,24,4,28,0.83
2013-2-1,28.2,24.8,20.4,15.5,9.1,2.3,67,51,37,30.23,29.76,16,4,19,0.00
2013-2-2,27.4,21.2,15.7,18.3,10.1,3.6,91,63,37,30.32,30.11,9,2,13,0.00
2013-2-3,28.1,21.6,15.2,18.6,16.0,13.5,94,80,55,30.11,29.83,5,0,0,0.00
2013-2-4,28.2,23.2,19.6,18.6,10.7,6.0,87,60,42,30.01,29.83,13,2,21,0.00
2013-2-5,28.2,24.5,21.8,23.4,20.3,11.4,93,84,62,30.04,29.95,4,0,0,0.00
2013-2-6,35.7,28.9,24.2,25.8,19.5,4.9,96,71,43,30.40,29.96,15,2,15,0.00
2013-2-7,30.4,23.7,17.3,19.7,8.5,1.6,74,52,38,30.56,30.38,5,1,0,0.00
2013-2-8,29.4,27.6,23.5,28.3,24.8,19.5,96,89,73,30.40,29.67,14,3,17,0.00
2013-2-9,26.9,23.1,17.1,22.2,11.9,1.3,95,66,34,30.37,29.77,21,8,27,0.00
2013-2-10,34.4,23.0,11.9,19.5,3.1,-3.6,76,43,24,30.52,30.36,7,2,0,0.00
2013-2-11,42.4,36.1,26.1,41.5,34.4,19.9,98,93,77,30.39,29.71,4,0,0,0.24
2013-2-12,41.2,38.2,35.0,38.5,28.2,24.0,98,67,56,30.00,29.73,14,3,21,0.00
2013-2-13,41.0,34.3,28.1,30.3,24.1,21.0,95,67,49,29.97,29.74,6,1,0,0.00
2013-2-14,42.1,33.4,26.5,30.8,27.8,24.1,97,81,56,30.03,29.75,6,0,0,0.08
2013-2-15,50.8,40.0,30.6,35.9,31.4,27.1,94,73,46,30.05,29.94,10,1,0,0.00
2013-2-16,37.7,30.9,26.8,32.5,23.7,14.1,96,76,57,30.00,29.76,11,3,0,0.02
2013-2-17,27.7,22.0,13.9,15.1,4.8,0.3,61,48,32,29.98,29.66,22,8,25,0.00
2013-2-18,31.0,22.1,13.8,12.2,5.6,1.5,62,49,36,30.26,29.97,15,3,21,0.00
2013-2-19,44.1,34.7,25.0,39.8,27.7,12.2,97,76,54,30.25,29.70,9,1,0,0.32
2013-2-20,35.5,28.0,22.1,28.0,15.5,9.5,74,59,44,29.99,29.71,18,5,21,0.00
2013-2-21,30.4,24.4,21.0,15.2,12.9,10.7,74,61,49,30.37,29.95,17,5,17,0.00
2013-2-22,37.8,28.5,20.2,27.9,21.0,13.9,85,74,54,30.47,30.32,10,2,0,0.00
2013-2-23,38.0,34.3,32.1,36.7,32.3,27.9,97,92,84,30.33,29.86,6,1,0,0.05
2013-2-24,41.2,34.8,30.7,35.8,32.0,26.4,98,90,71,29.99,29.78,11,3,14,0.02
2013-2-25,42.1,34.9,27.5,28.7,25.6,22.7,83,69,54,30.29,29.99,9,2,0,0.00
2013-2-26,41.4,33.6,25.8,30.9,27.5,22.6,94,79,57,30.36,30.00,7,0,0,0.11
2013-2-27,43.4,38.8,32.6,42.0,37.7,30.8,97,96,93,30.00,29.53,14,2,20,1.18
2013-2-28,45.4,39.1,34.6,39.1,34.9,32.2,98,86,64,29.66,29.57,6,1,0,0.01
2013-3-1,42.2,36.3,31.8,33.7,30.3,25.4,96,80,61,29.80,29.63,11,2,0,0.01
2013-3-2,36.2,32.9,28.3,26.2,24.8,23.8,84,72,64,29.80,29.72,10,3,0,0.00
2013-3-3,34.8,29.0,26.0,25.6,21.8,17.9,84,74,56,29.77,29.68,12,4,15,0.00
2013-3-4,37.9,30.6,25.7,21.9,20.0,17.2,76,65,51,29.92,29.76,14,4,18,0.00
2013-3-5,44.1,35.4,27.0,28.0,24.9,20.8,81,66,48,30.07,29.92,11,3,14,0.00
2013-3-6,41.6,36.9,34.9,35.5,30.4,27.4,88,77,68,30.04,29.94,17,3,19,0.00
2013-3-7,35.0,32.4,30.1,31.6,29.1,26.2,97,88,74,30.12,29.98,15,6,16,0.00
2013-3-8,37.9,32.5,28.0,30.8,28.1,24.8,97,85,62,30.24,30.03,15,5,16,0.06
2013-3-9,50.0,39.0,29.8,25.8,23.4,20.2,76,56,32,30.37,30.23,10,3,0,0.01
2013-3-10,50.4,37.0,25.5,34.9,30.2,24.0,95,78,49,30.43,30.33,5,0,0,0.00
2013-3-11,49.8,40.3,34.3,44.7,37.9,32.0,96,91,74,30.38,30.14,4,0,0,0.00
2013-3-12,53.2,48.7,40.2,52.4,47.3,37.8,97,95,83,30.15,29.71,9,2,0,1.20
2013-3-13,48.2,39.5,33.7,37.8,29.9,22.9,91,70,41,29.91,29.80,10,2,0,0.00
2013-3-14,34.5,30.0,24.4,28.7,13.9,4.9,84,52,31,29.97,29.87,19,5,24,0.00
2013-3-15,39.3,32.5,25.3,30.6,19.1,8.2,76,58,40,29.99,29.76,13,3,18,0.00
2013-3-16,36.4,31.4,28.1,27.7,23.2,16.6,92,73,47,29.95,29.81,9,1,13,0.00
2013-3-17,35.7,29.6,24.0,26.9,16.6,8.4,94,61,34,30.36,29.95,11,2,15,0.00
2013-3-18,34.4,27.2,19.5,27.3,14.5,7.0,95,60,38,30.46,30.11,6,1,0,0.00
2013-3-19,36.6,32.7,28.5,34.2,30.9,22.5,97,93,65,30.11,29.72,9,1,14,0.28
2013-3-20,40.4,33.2,26.7,23.2,19.6,15.9,76,58,39,29.90,29.81,12,2,13,0.10
2013-3-21,36.4,31.7,28.6,25.8,18.4,11.6,87,59,36,29.88,29.66,10,2,0,0.01
2013-3-22,38.3,31.0,24.0,23.8,18.7,12.0,77,60,46,29.90,29.74,12,3,17,0.00
2013-3-23,41.7,35.5,30.7,23.5,21.1,17.9,68,56,39,29.95,29.81,16,4,21,0.00
2013-3-24,43.4,35.2,27.4,25.1,21.7,16.8,74,58,46,29.98,29.76,11,2,0,0.00
2013-3-25,43.0,37.5,32.0,28.9,26.4,24.5,83,65,51,29.76,29.48,12,2,12,0.00
2013-3-26,47.1,39.7,34.3,29.6,26.9,23.3,77,61,45,29.89,29.61,13,2,16,0.00
2013-3-27,49.4,39.5,30.3,28.0,25.0,22.3,74,57,37,29.99,29.88,11,2,12,0.00
2013-3-28,45.7,39.9,34.2,34.5,30.4,27.1,78,69,58,30.14,29.98,10,2,0,0.00
2013-3-29,52.4,43.3,35.0,31.3,28.9,25.9,75,58,37,30.17,30.07,9,2,0,0.00
2013-3-30,55.6,44.1,33.3,32.1,24.9,18.7,83,51,24,30.19,30.08,10,1,12,0.00
2013-3-31,54.7,43.0,29.3,41.1,29.5,19.2,95,61,36,30.17,29.71,11,1,0,0.08
2013-4-1,60.7,44.6,33.6,45.2,35.9,13.4,97,74,38,29.92,29.62,15,3,17,0.04
2013-4-2,39.6,33.5,28.3,18.6,13.4,8.2,65,44,30,30.10,29.92,18,4,21,0.00
2013-4-3,42.4,34.5,28.9,15.2,13.0,9.6,56,42,27,30.32,30.08,17,4,23,0.00
2013-4-4,53.4,38.5,27.9,31.6,20.0,13.0,78,49,25,30.41,30.11,10,2,0,0.00
2013-4-5,59.5,45.4,36.3,31.6,23.9,15.2,78,47,21,30.11,29.72,13,3,16,0.00
2013-4-6,51.0,38.6,30.4,25.6,12.6,2.8,70,38,15,30.35,30.01,17,4,20,0.00
2013-4-7,54.3,43.7,32.9,42.5,34.2,25.9,92,71,45,30.35,30.02,10,1,12,0.00
2013-4-8,71.5,53.8,39.0,44.3,40.9,36.2,97,67,28,30.12,30.02,10,1,0,0.00
2013-4-9,74.4,62.5,48.6,52.9,44.1,36.8,94,57,28,30.04,29.93,20,2,20,0.02
2013-4-10,70.5,57.5,48.4,55.0,49.8,41.2,96,77,49,29.98,29.83,17,1,24,0.27
2013-4-11,58.7,51.6,44.5,54.6,47.1,39.0,97,85,65,30.10,29.82,9,2,0,0.00
2013-4-12,44.5,40.3,37.0,39.0,35.5,26.7,96,84,52,30.09,29.77,12,2,19,0.47
2013-4-13,53.9,44.8,36.0,38.8,35.6,32.6,96,73,49,30.00,29.77,6,2,0,0.05
2013-4-14,52.2,46.8,39.1,35.2,29.6,24.6,65,52,36,30.26,29.99,13,3,17,0.00
2013-4-15,58.7,46.5,35.7,35.5,30.8,26.1,81,56,36,30.42,30.26,6,1,0,0.00
2013-4-16,64.9,52.3,40.0,52.8,45.5,32.7,93,78,59,30.42,30.14,7,1,12,0.01
2013-4-17,65.0,56.1,49.0,53.2,39.6,32.3,95,58,30,30.33,30.15,11,3,0,0.00
2013-4-18,60.3,51.7,43.0,49.2,40.4,31.9,92,67,42,30.39,30.15,7,1,12,0.00
2013-4-19,73.5,61.5,51.4,63.2,57.9,49.2,98,89,68,30.15,29.67,13,1,13,0.09
2013-4-20,61.2,49.9,42.3,60.3,36.6,24.2,97,65,33,30.32,29.67,14,3,17,0.29
2013-4-21,50.9,41.3,31.6,26.0,21.8,18.0,69,47,29,30.67,30.32,13,3,14,0.00
2013-4-22,55.2,43.7,32.6,35.3,30.5,24.9,89,63,36,30.73,30.55,9,1,0,0.00
2013-4-23,48.2,40.9,34.7,40.6,35.6,29.5,92,82,74,30.56,30.15,7,2,0,0.00
2013-4-24,72.2,52.4,38.9,50.8,44.0,37.1,94,76,44,30.16,29.85,10,2,0,0.00
2013-4-25,62.0,52.7,44.7,50.4,31.6,19.4,95,49,20,30.29,29.88,14,3,16,0.00
2013-4-26,62.0,50.8,36.8,35.4,31.7,26.7,83,51,27,30.45,30.29,8,2,0,0.00
2013-4-27,66.8,53.7,40.0,34.1,28.7,21.6,65,41,20,30.47,30.30,9,2,0,0.00
2013-4-28,69.6,54.5,39.3,45.0,37.0,29.0,89,54,32,30.35,30.23,6,1,0,0.00
2013-4-29,56.6,52.9,49.4,47.9,43.3,35.1,88,70,55,30.28,30.23,5,0,0,0.00
2013-4-30,68.3,56.4,47.4,45.0,35.7,23.5,84,51,20,30.37,30.25,6,1,0,0.00
2013-5-1,69.3,55.0,38.9,44.0,36.0,26.8,84,51,24,30.52,30.37,7,1,0,0.00
2013-5-2,76.6,59.0,42.2,45.9,42.1,37.9,95,60,28,30.50,30.33,5,1,0,0.00
2013-5-3,69.0,56.3,46.2,45.7,39.1,33.7,87,55,30,30.49,30.36,6,1,0,0.00
2013-5-4,72.6,54.6,41.3,46.9,43.0,38.4,97,70,31,30.40,30.24,7,1,0,0.00
2013-5-5,67.1,51.0,39.1,44.6,40.7,37.2,95,71,37,30.34,30.23,6,1,0,0.00
2013-5-6,71.5,54.4,39.5,52.6,46.3,37.9,96,77,49,30.31,30.17,5,1,0,0.00
2013-5-7,75.0,60.5,45.3,58.2,52.0,44.2,98,76,46,30.21,30.11,8,0,0,0.00
2013-5-8,63.4,59.4,53.0,61.5,57.7,52.3,98,94,86,30.15,30.01,8,0,0,0.78
2013-5-9,62.5,56.5,51.1,59.4,55.3,50.3,98,96,86,30.05,29.91,4,0,0,0.55
2013-5-10,78.3,63.7,49.4,61.6,55.1,48.8,99,77,43,30.03,29.91,4,0,0,0.01
2013-5-11,65.7,61.1,58.6,63.0,59.6,55.4,98,95,88,29.93,29.72,5,0,0,0.37
2013-5-12,67.0,58.3,47.1,58.9,45.6,26.5,98,68,28,29.93,29.66,11,2,14,0.06
2013-5-13,53.7,45.8,37.1,35.8,30.7,25.0,90,57,36,30.14,29.93,10,2,14,0.00
2013-5-14,57.5,46.3,34.0,36.4,30.8,23.8,94,60,28,30.16,30.05,7,1,0,0.00
2013-5-15,66.4,51.7,36.7,54.2,45.3,33.1,94,80,57,30.11,29.71,6,0,12,0.02
2013-5-16,81.5,66.1,51.5,54.2,48.0,39.1,97,59,25,29.85,29.73,8,1,0,0.00
2013-5-17,69.3,59.3,50.3,45.3,42.3,38.0,80,55,37,30.23,29.85,6,1,0,0.00
2013-5-18,70.5,56.4,45.0,51.6,47.2,41.5,91,73,43,30.34,30.23,5,0,0,0.00
2013-5-19,57.0,55.1,53.6,56.2,53.8,50.1,98,95,87,30.36,30.21,5,0,0,0.25
2013-5-20,79.5,64.8,54.7,68.3,61.1,54.1,99,89,66,30.21,29.98,5,0,0,0.00
2013-5-21,88.1,73.3,60.5,72.3,66.7,59.4,99,82,55,30.00,29.83,5,0,0,0.00
2013-5-22,80.8,67.1,57.3,70.9,63.4,55.6,97,89,68,29.95,29.85,5,0,0,0.00
2013-5-23,75.5,66.6,63.6,71.2,65.3,62.8,98,96,83,29.91,29.78,4,0,0,3.27
2013-5-24,63.6,54.5,42.0,63.0,53.4,40.9,99,96,85,29.96,29.68,9,2,0,0.28
2013-5-25,46.9,43.4,41.1,45.3,42.0,39.9,98,95,87,30.00,29.89,16,2,16,1.12
2013-5-26,61.4,51.3,42.9,43.8,39.7,35.4,87,66,45,30.22,29.94,15,2,21,0.00
2013-5-27,73.1,58.4,44.0,47.0,40.0,35.8,83,54,27,30.27,30.14,7,1,0,0.00
2013-5-28,68.8,55.5,45.6,56.4,50.3,43.4,98,84,48,30.25,30.17,4,0,0,0.27
2013-5-29,81.6,66.1,56.0,71.9,62.4,55.4,98,89,67,30.17,30.01,4,0,0,0.01
2013-5-30,91.0,77.5,65.7,72.0,66.8,63.8,95,72,45,30.14,30.06,6,0,0,0.00
2013-5-31,93.7,78.0,65.4,71.9,66.4,61.3,93,70,37,30.13,29.99,5,0,0,0.00
2013-6-1,90.2,77.6,67.4,73.1,67.5,62.5,91,72,51,30.03,29.90,6,0,0,0.00
2013-6-2,86.9,75.8,67.5,73.4,68.6,65.4,94,80,59,29.92,29.76,6,0,0,0.00
2013-6-3,78.1,69.3,60.8,68.3,64.1,51.1,98,84,64,29.91,29.81,4,0,0,0.84
2013-6-4,73.8,61.0,48.6,51.2,46.2,39.2,85,61,32,30.15,29.91,6,1,0,0.00
2013-6-5,75.3,61.3,48.3,54.0,48.3,42.8,85,64,36,30.25,30.14,4,0,0,0.00
2013-6-6,69.6,58.9,49.2,59.2,53.6,47.3,97,84,60,30.20,30.06,5,0,0,0.17
2013-6-7,59.9,58.0,54.8,59.0,57.2,54.0,98,97,97,30.06,29.71,7,1,0,2.69
2013-6-8,75.5,63.0,53.1,66.2,58.5,52.5,99,86,67,30.08,29.64,6,1,0,0.66
2013-6-9,79.6,66.8,55.0,61.5,57.8,54.2,98,76,47,30.20,30.07,4,0,0,0.00
2013-6-10,71.2,62.3,58.2,65.6,60.2,56.5,98,93,80,30.20,29.89,5,1,13,0.74
2013-6-11,78.5,66.7,58.8,70.3,62.9,56.3,98,88,67,29.89,29.61,8,1,13,0.24
2013-6-12,71.4,64.6,57.0,57.3,54.7,52.3,89,71,54,29.88,29.69,9,2,0,0.00
2013-6-13,59.0,56.2,52.2,57.8,54.7,51.1,97,95,87,29.86,29.56,7,1,15,1.35
2013-6-14,69.9,57.2,50.0,60.7,54.5,49.5,98,91,69,29.91,29.57,4,1,0,0.66
2013-6-15,77.6,65.7,54.3,59.0,54.2,49.2,97,70,41,30.04,29.91,6,0,0,0.00
2013-6-16,78.3,66.9,53.1,64.2,58.7,51.3,96,76,51,30.02,29.77,5,0,0,0.00
2013-6-17,85.6,71.6,62.8,70.7,64.0,58.0,96,78,51,29.94,29.84,7,0,0,0.24
2013-6-18,82.6,66.6,59.2,70.6,63.0,58.1,98,89,66,29.93,29.82,6,0,12,0.66
2013-6-19,73.9,63.2,54.6,59.4,53.4,44.1,97,73,37,30.21,29.92,5,0,0,0.00
2013-6-20,80.9,64.7,50.4,61.7,55.1,49.0,97,74,42,30.30,30.21,4,0,0,0.00
2013-6-21,82.7,69.1,57.8,66.2,58.8,52.3,89,71,50,30.32,30.24,5,0,0,0.00
2013-6-22,83.8,70.0,59.9,66.6,59.6,53.7,84,71,47,30.29,30.14,6,0,0,0.00
2013-6-23,88.7,74.3,61.3,73.5,66.0,56.8,93,77,49,30.21,30.07,5,0,0,0.00
2013-6-24,91.2,76.6,65.5,74.8,69.5,64.3,97,81,48,30.08,29.93,6,0,0,0.87
2013-6-25,90.2,76.2,64.6,76.0,69.3,64.0,99,81,55,30.01,29.80,5,0,0,0.00
2013-6-26,80.3,74.5,69.2,72.7,69.3,67.5,97,84,73,29.85,29.78,6,0,0,0.10
2013-6-27,82.9,72.7,65.7,74.4,69.7,65.1,98,91,73,29.84,29.58,5,0,0,0.64
2013-6-28,83.7,74.4,69.4,75.4,70.7,68.1,98,89,68,29.58,29.48,6,0,0,0.14
2013-6-29,83.6,73.2,66.5,72.0,68.3,65.2,97,86,60,29.72,29.50,6,0,0,0.00
2013-6-30,81.7,72.9,66.2,75.9,70.6,65.3,98,93,80,29.94,29.72,6,0,0,0.00
2013-7-1,74.1,71.7,69.6,72.9,70.7,68.4,98,97,95,30.08,29.92,4,0,0,0.56
2013-7-2,82.5,74.1,70.3,76.1,72.3,69.8,99,94,78,30.19,30.07,4,0,0,0.06
2013-7-3,84.6,75.3,69.9,76.3,72.0,68.8,97,90,72,30.26,30.18,7,0,0,0.00
2013-7-4,88.5,79.3,72.2,77.9,73.7,71.2,98,84,62,30.26,30.15,6,0,0,0.00
2013-7-5,90.8,80.6,72.1,77.5,73.2,70.2,95,79,55,30.22,30.09,5,0,0,0.00
2013-7-6,89.8,80.9,73.9,76.8,73.5,71.2,93,79,60,30.14,30.03,6,0,0,0.00
2013-7-7,92.3,82.5,75.1,80.0,75.0,68.0,93,79,59,30.07,29.92,5,0,0,0.00
2013-7-8,87.8,77.8,69.5,73.5,69.5,66.2,92,77,56,30.05,29.96,5,0,0,0.00
2013-7-9,88.8,75.6,66.8,75.8,70.7,65.3,97,86,61,30.09,30.00,2,0,0,0.00
2013-7-10,84.6,77.0,70.8,77.9,72.8,69.3,96,87,75,30.03,29.81,4,0,0,0.02
2013-7-11,84.8,74.9,66.4,73.4,70.4,61.3,96,86,67,29.95,29.81,2,0,0,0.02
2013-7-12,77.9,69.9,62.5,69.1,64.8,61.3,96,84,71,30.15,29.94,6,1,0,0.10
2013-7-13,78.3,70.3,62.4,73.9,68.2,61.1,97,93,85,30.31,30.15,6,0,0,0.03
2013-7-14,89.5,79.1,71.3,76.5,73.1,70.7,98,83,60,30.35,30.24,5,0,0,0.00
2013-7-15,89.2,80.7,73.5,76.9,73.1,70.1,90,78,62,30.25,30.14,4,0,0,0.00
2013-7-16,88.8,79.3,70.9,73.3,69.4,65.6,93,73,47,30.22,30.15,5,0,0,0.00
2013-7-17,94.9,81.3,70.4,75.5,71.2,67.8,93,73,45,30.22,30.07,2,0,0,0.00
2013-7-18,95.9,83.0,73.1,77.7,73.4,69.4,93,74,49,30.08,29.96,3,0,0,0.00
2013-7-19,95.2,84.7,75.1,78.6,75.0,72.5,93,74,52,29.98,29.78,10,1,12,0.00
2013-7-20,91.1,81.6,74.1,76.4,73.2,68.5,85,76,55,29.85,29.72,6,0,0,0.01
2013-7-21,86.7,75.3,65.5,70.2,66.5,60.8,96,76,45,29.99,29.84,3,0,0,0.01
2013-7-22,82.2,73.0,65.7,74.6,69.9,64.5,97,90,75,29.99,29.83,3,0,0,0.04
2013-7-23,87.7,74.7,70.4,76.4,72.0,69.5,98,92,65,29.83,29.56,7,0,0,0.80
2013-7-24,78.0,71.3,62.2,70.6,66.1,53.2,99,84,69,29.97,29.63,5,0,0,0.01
2013-7-25,64.2,61.4,58.6,59.2,55.4,52.5,92,81,72,30.09,29.96,7,0,0,0.00
2013-7-26,79.3,67.1,60.4,66.5,61.7,58.1,95,84,59,30.08,30.01,4,0,0,0.02
2013-7-27,82.1,70.5,61.8,67.8,64.1,60.8,98,82,55,30.08,29.99,6,0,0,0.00
2013-7-28,76.8,69.0,62.9,69.6,66.0,61.3,98,91,75,30.02,29.95,4,0,0,0.10
2013-7-29,83.8,72.9,64.8,70.6,65.1,57.1,99,79,52,30.12,29.98,5,0,0,0.00
2013-7-30,77.8,67.6,57.1,62.2,58.9,55.3,96,75,54,30.19,30.11,5,0,0,0.00
2013-7-31,81.5,68.6,57.5,65.8,60.5,56.1,97,78,48,30.19,30.06,3,0,0,0.00
2013-8-1,74.4,66.1,63.1,67.8,64.2,61.1,98,94,76,30.07,29.85,3,0,0,0.80
2013-8-2,80.5,71.0,63.9,68.2,64.5,61.1,99,82,56,29.92,29.81,7,0,0,0.12
2013-8-3,77.5,68.1,62.6,68.9,63.6,58.3,96,86,73,29.93,29.85,4,0,0,0.24
2013-8-4,76.2,65.0,57.5,63.2,59.9,55.8,98,85,51,30.00,29.85,5,0,0,0.14
2013-8-5,74.8,62.8,53.7,57.8,52.9,48.4,96,73,44,30.08,29.99,6,0,0,0.01
2013-8-6,78.1,65.0,52.8,63.1,57.0,51.2,96,77,50,30.17,30.08,3,0,0,0.00
2013-8-7,76.7,67.3,59.4,67.0,62.9,57.8,96,86,68,30.19,30.09,6,0,0,0.00
2013-8-8,80.7,71.6,67.5,74.3,69.6,66.3,98,94,79,30.10,30.03,3,0,0,0.14
2013-8-9,81.7,73.1,69.7,77.1,72.0,69.1,99,97,84,30.04,29.81,6,0,0,0.94
2013-8-10,80.0,71.0,62.5,69.8,63.3,56.1,98,78,53,30.07,29.86,5,1,0,0.01
2013-8-11,77.3,66.3,54.0,62.6,57.1,51.4,93,74,49,30.15,30.05,3,0,0,0.00
2013-8-12,81.1,70.3,62.6,66.1,62.3,57.0,97,78,49,30.07,29.94,3,0,0,0.00
2013-8-13,75.9,68.8,65.2,70.0,66.8,63.3,98,94,80,29.96,29.71,2,0,0,0.22
2013-8-14,70.6,63.6,56.0,64.4,54.9,49.7,95,74,55,30.07,29.76,10,1,0,0.00
2013-8-15,73.3,61.8,51.6,58.7,53.1,47.8,96,75,44,30.18,30.07,5,0,0,0.00
2013-8-16,77.2,64.3,52.8,60.3,55.7,51.3,97,76,47,30.24,30.16,3,0,0,0.00
2013-8-17,79.7,66.7,54.9,64.5,58.8,53.5,97,78,44,30.32,30.24,3,0,0,0.00
2013-8-18,76.5,66.5,58.6,65.8,61.1,56.6,95,83,61,30.30,30.16,2,0,0,0.00
2013-8-19,77.5,70.5,61.4,66.6,64.6,60.2,97,82,64,30.14,30.05,3,0,0,0.02
2013-8-20,82.3,70.4,60.3,67.6,63.0,59.0,98,80,49,30.15,30.07,3,0,0,0.00
2013-8-21,86.0,72.6,61.3,69.0,64.1,60.4,98,78,46,30.20,30.06,4,0,0,0.00
2013-8-22,75.1,69.8,64.8,72.3,68.1,63.1,98,94,87,30.09,29.89,3,0,0,0.19
2013-8-23,76.3,69.1,59.7,69.0,61.2,54.3,98,78,49,30.15,29.89,7,1,0,0.01
2013-8-24,76.8,64.3,52.4,58.4,53.8,49.3,92,71,43,30.39,30.15,3,0,0,0.00
2013-8-25,79.6,66.0,52.6,60.8,55.5,51.1,98,73,40,30.44,30.25,4,0,0,0.00
2013-8-26,75.7,68.7,63.8,68.5,62.9,57.3,96,82,67,30.26,29.93,4,0,0,0.15
2013-8-27,78.8,71.5,67.3,70.7,68.1,66.5,98,90,71,29.93,29.83,5,0,0,0.60
2013-8-28,85.5,70.6,64.0,73.3,67.9,63.2,98,92,62,29.93,29.86,4,0,0,2.22
2013-8-29,75.3,69.2,64.9,68.9,66.5,63.5,99,91,73,30.05,29.93,3,0,0,0.02
2013-8-30,80.5,71.2,64.5,71.0,66.9,63.2,98,87,66,30.06,29.87,4,0,0,0.00
2013-8-31,82.0,74.6,69.9,75.3,71.5,68.4,96,90,78,29.88,29.80,5,0,0,0.00
2013-9-1,81.5,75.2,71.1,75.8,72.5,70.1,97,92,80,29.87,29.81,3,0,0,0.00
2013-9-2,79.8,72.8,68.9,75.6,71.5,68.2,98,96,84,29.84,29.71,4,0,0,0.93
2013-9-3,73.2,68.4,61.6,69.7,65.0,56.9,99,90,68,29.90,29.73,3,0,0,0.59
2013-9-4,76.9,66.0,56.8,61.4,58.2,55.6,97,78,51,30.02,29.89,6,0,0,0.00
2013-9-5,70.9,63.7,52.4,62.4,54.5,45.5,89,73,45,30.19,29.94,4,1,0,0.00
2013-9-6,66.3,55.3,45.2,48.9,45.8,42.5,94,72,46,30.30,30.18,4,0,0,0.00
2013-9-7,74.4,60.2,46.0,59.2,51.7,44.6,98,76,46,30.18,29.93,4,0,0,0.00
2013-9-8,75.0,65.4,54.3,65.0,55.5,44.4,87,71,49,30.12,29.84,7,1,0,0.00
2013-9-9,68.6,56.9,45.1,55.9,49.2,42.9,96,77,51,30.29,30.12,5,0,0,0.00
2013-9-10,79.6,68.8,58.2,73.7,66.4,55.6,98,92,81,30.20,30.08,5,0,0,0.16
2013-9-11,92.4,78.5,71.0,79.7,73.6,69.6,98,86,63,30.13,29.98,3,0,0,0.00
2013-9-12,84.4,72.5,66.1,76.3,70.1,65.2,98,92,73,30.00,29.69,5,0,0,1.29
2013-9-13,71.4,64.2,53.3,67.2,61.8,49.9,99,92,73,29.87,29.63,5,0,0,0.09
2013-9-14,62.2,54.6,46.7,53.1,49.4,45.3,97,83,66,30.16,29.87,5,0,0,0.00
2013-9-15,67.5,54.3,43.4,54.3,48.3,42.6,98,82,49,30.25,30.12,4,0,0,0.00
2013-9-16,65.0,57.5,49.9,56.9,53.2,45.6,97,86,66,30.29,30.07,5,0,0,0.01
2013-9-17,60.9,49.9,39.7,46.2,42.1,37.6,94,76,47,30.48,30.29,3,0,0,0.00
2013-9-18,68.5,52.7,39.3,50.2,45.3,38.5,98,79,45,30.40,30.22,3,0,0,0.00
2013-9-19,73.6,58.2,43.5,56.9,51.2,42.6,98,80,45,30.23,30.10,2,0,0,0.00
2013-9-20,76.2,59.7,46.1,61.6,54.5,45.3,99,85,51,30.14,30.03,3,0,0,0.01
2013-9-21,70.4,62.9,55.5,67.0,61.4,54.9,99,95,87,30.05,29.68,12,0,12,0.28
2013-9-22,66.5,58.8,48.9,65.6,53.7,43.0,98,84,66,29.94,29.66,7,1,0,0.99
2013-9-23,58.9,50.7,43.3,47.3,42.9,39.1,91,75,56,30.09,29.93,7,1,0,0.00
2013-9-24,65.5,51.9,39.7,51.4,44.6,38.1,96,78,48,30.09,29.91,5,0,0,0.00
2013-9-25,66.0,54.7,44.2,54.9,48.2,42.1,95,80,51,30.00,29.92,3,0,0,0.00
2013-9-26,65.4,57.0,52.2,56.1,53.2,50.8,96,88,68,30.08,29.99,3,0,0,0.00
2013-9-30,71.0,59.9,46.2,55.8,52.5,45.7,99,78,55,30.14,30.01,2,0,0,0.00
2013-10-1,73.2,60.1,47.1,60.2,54.6,46.3,98,84,58,30.06,29.93,3,0,0,0.01
2013-10-2,76.8,65.0,51.1,64.8,58.5,50.0,98,81,63,30.04,29.93,7,0,0,0.00
2013-10-3,73.8,62.6,50.0,59.8,55.2,48.9,98,79,44,30.16,30.03,3,0,0,0.00
2013-10-4,80.1,65.7,56.5,69.9,62.4,55.4,98,90,68,30.10,30.00,2,0,0,0.05
2013-10-5,72.8,64.3,58.8,65.9,61.5,57.7,97,91,76,30.13,30.06,1,0,0,0.00
2013-10-6,64.0,61.9,60.5,63.1,61.2,59.6,99,98,97,30.15,30.08,5,0,0,0.02
2013-10-7,71.7,64.2,56.3,69.2,63.2,52.7,99,97,89,30.08,29.79,6,0,12,0.30
2013-10-8,61.4,53.5,46.8,52.7,45.6,41.1,96,76,50,30.39,29.99,11,1,12,0.00
2013-10-9,60.9,50.7,42.1,48.3,44.4,39.8,93,80,54,30.47,30.36,4,0,0,0.00
2013-10-10,60.7,52.9,46.1,54.6,49.3,44.2,94,88,79,30.36,30.15,4,0,0,0.00
2013-10-11,66.8,59.9,53.4,59.7,55.0,50.6,93,84,76,30.16,30.08,5,0,0,0.00
2013-10-12,69.3,59.3,50.8,57.0,50.6,45.1,87,74,49,30.35,30.14,6,0,0,0.00
2013-10-13,63.9,53.9,47.9,52.5,49.1,46.3,97,85,62,30.44,30.34,4,0,0,0.00
2013-10-14,64.1,51.2,41.4,52.7,47.0,40.6,98,87,57,30.42,30.28,3,0,0,0.00
2013-10-15,69.2,55.2,45.8,55.7,48.5,41.9,98,80,51,30.31,30.16,5,0,0,0.01
2013-10-16,63.4,54.9,47.4,55.9,50.9,44.9,95,87,74,30.17,29.96,2,0,0,0.00
2013-10-17,71.8,62.7,57.1,61.0,58.8,55.4,97,88,63,29.96,29.71,4,0,0,0.04
2013-10-18,63.4,58.4,51.4,61.6,48.3,40.6,98,71,48,30.01,29.68,13,2,14,0.02
2013-10-19,62.1,52.0,40.3,52.9,45.0,39.0,97,78,51,30.02,29.78,3,0,0,0.05
2013-10-20,57.8,51.7,45.6,53.0,41.2,35.8,96,69,45,30.10,29.77,12,1,15,0.00
2013-10-21,62.9,50.7,38.4,45.8,40.5,36.3,96,71,40,30.19,30.01,5,0,0,0.00
2013-10-22,63.1,52.5,44.0,51.2,46.8,41.0,97,82,59,30.02,29.76,8,0,0,0.00
2013-10-23,51.3,43.4,34.9,40.9,36.7,33.0,96,79,53,29.85,29.66,5,0,0,0.00
2013-10-24,51.0,42.5,36.2,36.4,31.5,27.9,87,67,43,30.03,29.78,13,1,21,0.00
2013-10-25,48.3,42.0,35.8,32.8,30.7,28.2,81,65,50,30.26,30.02,11,1,13,0.00
2013-10-26,51.4,43.4,33.8,34.1,32.0,28.3,93,67,43,30.25,29.94,10,1,12,0.00
2013-10-27,53.9,47.0,42.1,36.7,32.9,30.0,75,59,42,30.15,29.88,13,1,16,0.00
2013-10-28,57.8,46.3,34.5,36.9,34.0,30.3,90,64,40,30.37,30.15,14,1,14,0.00
2013-10-29,48.2,41.5,35.5,32.2,29.6,26.4,83,63,49,30.47,30.37,4,0,0,0.00
2013-10-30,54.1,44.0,34.6,48.4,39.3,29.9,97,84,67,30.39,30.23,3,0,0,0.00
2013-10-31,61.4,51.8,39.0,58.2,50.4,38.2,98,95,89,30.28,29.84,5,0,0,0.12
2013-11-1,66.5,61.3,55.5,61.7,56.7,51.0,97,86,58,29.84,29.55,15,1,15,0.19
2013-11-2,64.1,53.1,45.2,52.3,46.1,41.3,96,79,50,29.81,29.64,6,0,0,0.00
2013-11-3,46.9,40.0,30.3,42.2,32.2,18.9,91,74,62,30.49,29.81,12,2,12,0.00
2013-11-4,42.2,33.2,26.2,22.2,18.4,14.5,74,56,33,30.72,30.49,5,1,0,0.00
2013-11-5,51.1,40.6,29.5,40.0,32.3,20.3,88,72,60,30.72,30.55,5,0,0,0.00
2013-11-6,58.0,49.3,39.5,50.5,44.2,37.8,97,84,64,30.55,30.11,5,0,0,0.00
2013-11-7,59.8,51.9,39.4,56.5,48.1,28.0,96,87,60,30.11,29.76,14,2,18,0.12
2013-11-8,44.7,39.5,36.3,31.1,28.4,25.3,79,65,50,30.22,29.93,16,2,19,0.00
2013-11-9,45.1,40.1,34.9,33.3,28.2,25.9,73,62,50,30.31,30.03,5,0,0,0.00
2013-11-10,55.9,45.5,41.3,39.1,34.6,29.2,77,66,44,30.05,29.83,14,2,19,0.01
2013-11-11,48.4,44.8,38.5,33.2,29.5,26.4,64,55,44,30.21,29.98,13,2,19,0.00
2013-11-12,48.2,33.6,24.8,37.3,25.8,18.0,95,74,55,30.31,29.97,12,2,13,0.08
2013-11-13,34.5,27.7,21.1,19.6,16.0,11.9,82,63,39,30.41,30.29,11,2,0,0.00
2013-11-14,50.3,38.0,27.5,21.4,19.1,15.6,74,49,27,30.29,30.17,8,1,12,0.00
2013-11-15,56.0,43.4,32.9,28.0,23.3,15.9,68,46,26,30.28,30.19,4,1,0,0.00
2013-11-16,57.7,45.4,39.8,39.5,33.6,26.4,85,64,46,30.37,30.27,3,0,0,0.00
2013-11-18,61.4,55.9,46.7,49.8,36.3,26.3,87,49,37,29.79,29.61,12,2,14,0.24
2013-11-19,46.5,39.4,29.8,29.8,25.4,20.6,69,57,47,30.39,29.78,14,4,17,0.00
2013-11-20,39.6,31.1,25.3,21.1,17.0,11.7,73,57,33,30.67,30.38,10,2,0,0.00
2013-11-21,47.5,35.5,21.8,38.0,27.3,17.8,88,73,52,30.68,30.44,5,0,0,0.00
2013-11-22,51.0,47.2,42.6,48.1,44.6,37.9,97,91,83,30.44,29.93,6,0,0,0.14
2013-11-23,51.2,38.3,26.2,47.0,26.1,12.0,86,62,41,30.06,29.92,15,4,15,0.00
2013-11-24,26.2,22.2,19.0,18.6,5.4,-2.7,77,49,29,30.38,29.99,19,6,22,0.00
2013-11-25,31.1,24.4,16.5,15.5,11.9,6.8,77,59,44,30.51,30.37,7,1,0,0.00
2013-11-26,41.9,33.3,29.6,41.1,23.8,14.5,97,70,52,30.38,29.89,4,0,0,0.39
2013-11-27,59.2,45.1,31.6,58.6,43.6,22.3,98,94,68,29.91,29.36,14,3,16,2.88
2013-11-28,31.5,27.4,25.0,22.6,14.9,10.2,72,59,47,30.52,29.71,19,3,20,0.00
2013-11-29,32.1,27.0,20.7,21.5,18.0,14.4,83,69,57,30.79,30.51,9,1,0,0.00
2013-11-30,31.6,24.6,15.4,24.3,15.5,9.9,84,69,44,30.83,30.44,5,0,0,0.00
2013-12-1,45.7,36.8,30.4,36.4,30.7,24.4,89,79,68,30.44,30.06,2,0,0,0.00
2013-12-2,42.4,34.5,30.3,35.9,31.6,28.1,96,89,74,30.06,29.94,1,0,0,0.00
2013-12-3,46.8,35.5,28.3,37.7,32.3,27.3,97,89,67,30.05,29.92,4,0,0,0.00
2013-12-4,49.2,38.6,30.6,40.9,33.6,28.5,94,83,64,30.20,30.05,2,0,0,0.00
2013-12-5,53.9,50.3,43.8,53.2,49.4,40.7,98,97,89,30.20,29.98,4,0,0,0.02
2013-12-6,53.8,42.8,32.3,53.4,41.6,31.0,99,95,86,30.19,29.91,10,2,0,0.56
2013-12-7,35.8,32.0,26.6,31.4,27.3,19.1,96,83,67,30.57,30.13,10,2,0,0.02
2013-12-8,28.8,26.1,21.1,24.5,19.8,16.1,92,77,70,30.65,30.46,5,0,0,0.00
2013-12-9,34.1,30.7,26.3,33.6,29.8,24.3,98,96,92,30.46,30.00,6,1,0,0.05
2013-12-10,34.0,30.0,24.2,32.2,27.3,16.5,96,90,72,30.14,29.88,5,0,0,0.00
2013-12-11,30.4,25.1,20.8,20.0,16.7,14.6,79,70,61,30.34,30.14,8,1,0,0.00
2013-12-12,24.3,19.9,17.3,16.3,9.4,5.7,74,63,51,30.39,30.18,8,2,0,0.00
2013-12-13,30.7,24.0,17.7,18.3,12.4,6.0,80,61,53,30.39,30.14,11,2,12,0.00
2013-12-14,21.7,18.1,13.8,19.9,14.6,11.3,94,86,68,30.57,29.92,7,1,0,0.00
2013-12-15,35.1,28.7,21.7,31.1,24.9,19.4,96,86,70,29.94,29.55,12,2,16,0.00
2013-12-16,29.2,23.5,16.1,21.8,11.7,7.2,79,60,47,30.27,29.84,13,2,14,0.00
2013-12-17,16.1,13.5,10.8,13.6,8.7,6.1,90,81,72,30.27,30.22,1,0,0,0.00
2013-12-18,32.3,27.1,15.8,23.4,19.9,13.4,90,74,62,30.20,30.06,12,2,0,0.00
2013-12-19,42.9,33.1,23.0,28.3,23.6,18.4,84,69,51,30.22,30.06,8,1,0,0.03
2013-12-20,47.9,40.6,32.0,35.5,31.4,27.3,88,70,55,30.16,30.00,5,0,0,0.08
2013-12-21,58.1,49.9,43.5,50.5,44.0,35.3,92,80,65,30.04,29.93,5,0,0,0.00
2013-12-22,65.5,60.0,52.8,61.7,56.7,50.5,97,89,81,30.00,29.78,8,1,0,0.00
2013-12-23,58.9,50.5,35.7,55.8,49.1,32.5,98,95,88,30.17,29.93,12,1,15,0.83
2013-12-24,35.7,29.9,21.9,32.4,23.7,9.4,94,78,58,30.36,30.12,11,3,18,0.00
2013-12-25,23.3,19.2,14.0,14.7,8.7,4.7,75,63,48,30.57,30.36,13,2,16,0.00
2013-12-26,30.7,26.4,20.3,25.8,21.9,13.2,88,83,73,30.48,30.20,6,0,0,0.00
2013-12-27,34.9,30.3,25.3,24.4,21.5,18.3,85,70,55,30.40,30.29,5,1,0,0.00
2013-12-28,48.6,37.8,28.2,28.8,25.7,22.6,81,63,44,30.32,30.09,8,1,0,0.00
2013-12-29,41.4,38.4,34.6,38.2,33.1,27.8,97,82,62,30.11,29.49,10,1,0,1.04
2013-12-30,39.7,31.5,15.9,36.1,25.1,9.4,97,77,59,30.24,29.71,8,2,14,0.00
2013-12-31,27.2,20.3,13.7,22.0,12.3,7.7,84,71,52,30.31,30.10,9,1,0,0.00
2014-1-1,28.5,23.1,17.7,19.5,13.0,7.8,79,65,56,30.47,30.30,7,1,0,0.00
2014-1-2,25.2,19.0,10.9,20.2,16.0,8.6,91,88,79,30.34,29.76,10,2,0,0.00